sat.trackr.live / text

‹ back to catalog

STARLINK-2558

NORAD 48282 · 2021-036G

PAYLOAD ACTIVE UNKNOWN

§ Identity

Operator
Country
US
Launch date
2021-04-29
Launch site
AFETR
Launch vehicle
Mass (kg)
RCS (m²)

Purposes: comms

External: N2YO · Heavens-Above · Gunter

§ Orbital elements

Epoch: 2026-09-19T12:42:02.197440Z

Period
94.01 min
Inclination
53.1592°
Eccentricity
0.0001132
Mean motion
15.31701919 rev/d
Perigee alt
470.0 km
Apogee alt
471.5 km
Semi-major
6,848.9 km
B*
2.6914e-5
RAAN
253.3402°
Arg perigee
102.5815°
Mean anomaly
257.5314°
Rev number
29,811

§ Raw data

STARLINK-25581 48282U 21036G   26262.52919210  .00000470  00000+0  26914-4 0  99992 48282  53.1592 253.3402 0001132 102.5815 257.5314 15.31701919298114

JSON: /api/v1/satellites/48282 · /tle

For live sub-satellite position, see the globe view (requires WebGL).

§ Visibility from observer

Set your observer location to see the next 7 days of passes ≥ 10°. The values pass through the URL so the page stays shareable.

No JS? Fill the form by hand. The geolocation button needs JavaScript.